Simultaneous Nadir Overpasses (SNOs) Predictions

Prediction of SNOs between GOES-17 and NOAA-20 Satellite Orbit:

Table of predicted SNOs for the next 14.0 days since TLE Epoch: 6/29/2020
Index Date Time (GOES-17) GOES-17 Lat,Lon NOAA-20 Lat,Lon Distance(km) Time Diff (sec)
1 06/29/2020 10:39:55 0.03,-137.20 0.30,-138.37 134.56 80
2 06/30/2020 10:18:31 0.02,-137.20 -0.75,-133.85 382.11 80
3 07/01/2020 22:43:06 -0.01,-137.20 -0.46,-139.15 222.78 80
4 07/02/2020 22:21:42 -0.00,-137.19 0.59,-134.63 293.37 80
5 07/04/2020 10:46:09 -0.01,-137.20 0.58,-139.90 307.31 80
6 07/05/2020 10:24:44 -0.01,-137.19 -0.41,-135.36 208.56 80
7 07/06/2020 22:46:39 0.01,-137.18 -0.79,-140.66 397.26 80
8 07/07/2020 22:30:34 0.01,-137.17 0.26,-136.13 118.62 80
9 07/09/2020 10:52:22 -0.01,-137.17 0.91,-141.40 482.36 80
10 07/10/2020 10:30:56 -0.01,-137.16 -0.08,-136.87 33.33 80
11 07/12/2020 22:34:06 0.01,-137.13 -0.12,-137.63 57.50 80
